This is the latest recevied weather packets stored in our database for station/object EA1HTW-13. If no packets are shown the sender has not sent any weather packets the latest 10 day(s).
| Time | Temp. | Humidity | Pressure | Rain* | Wind** | Luminosity | Snow |
|---|---|---|---|---|---|---|---|
| 1777793535 | 13.89° C | 88% | 1006.6 hPa | 14.22 mm | - | - | - |
| 1777792994 | 13.89° C | 87% | 1006.7 hPa | 13.46 mm | - | - | - |
| 1777792454 | 13.89° C | 87% | 1006.7 hPa | 12.7 mm | - | - | - |
| 1777791914 | 13.89° C | 87% | 1006.5 hPa | 10.92 mm | - | - | - |
| 1777791374 | 14.44° C | 86% | 1006.4 hPa | 8.13 mm | - | - | - |
| 1777790834 | 14.44° C | 86% | 1006.4 hPa | 4.83 mm | - | - | - |
| 1777790294 | 14.44° C | 86% | 1006.4 hPa | 2.29 mm | - | - | - |
| 1777789755 | 14.44° C | 86% | 1006.3 hPa | 1.27 mm | - | - | - |
| 1777789214 | 14.44° C | 86% | 1006 hPa | 0.51 mm | - | - | - |
| 1777788674 | 14.44° C | 86% | 1006.1 hPa | 0 mm | - | - | - |
| 1777788135 | 14.44° C | 85% | 1006 hPa | 0 mm | - | - | - |
| 1777787594 | 14.44° C | 85% | 1006.2 hPa | 0 mm | - | - | - |
| 1777787055 | 14.44° C | 85% | 1006 hPa | 0 mm | - | - | - |
| 1777786514 | 14.44° C | 85% | 1006 hPa | 0 mm | - | - | - |
| 1777785974 | 14.44° C | 85% | 1006.1 hPa | 0 mm | - | - | - |
| 1777785435 | 14.44° C | 85% | 1005.9 hPa | 0 mm | - | - | - |
| 1777784895 | 14.44° C | 85% | 1006 hPa | 0 mm | - | - | - |
| 1777784355 | 14.44° C | 85% | 1006.1 hPa | 0 mm | - | - | - |
| 1777783814 | 14.44° C | 85% | 1005.9 hPa | 0 mm | - | - | - |
| 1777783275 | 14.44° C | 84% | 1006.2 hPa | 0 mm | - | - | - |
| 1777782735 | 14.44° C | 84% | 1006 hPa | 0 mm | - | - | - |
| 1777782195 | 14.44° C | 84% | 1006.1 hPa | 0 mm | - | - | - |
| 1777781654 | 14.44° C | 84% | 1005.9 hPa | 0 mm | - | - | - |
| 1777781115 | 14.44° C | 84% | 1006.1 hPa | 0 mm | - | - | - |
| 1777780575 | 14.44° C | 84% | 1006.2 hPa | 0 mm | - | - | - |
* Rain latest hour (hover to see other rain measurements)
** Current wind speed in m/s (hover to see current wind gust speed)